AV279 Weather Reports


time (UTC)temp
C
wind
direction
speed
KPH
gust
KPH
rain 1hr
cm
rain 24hr
cm
rain mn
cm
humidity
%
barometer
mb
20260508155819 17 45 6.4 11.3 0.00 0.00 0.00 57 1015.6
20260508154819 17 45 12.9 19.3 0.00 0.00 0.00 57 1015.6
20260508153819 17 45 6.4 12.9 0.00 0.00 0.00 57 1015.6
20260508152819 17 23 8.0 14.5 0.00 0.00 0.00 58 1015.8
20260508151819 17 45 4.8 8.0 0.00 0.00 0.00 57 1015.9
20260508150819 18 45 6.4 12.9 0.00 0.00 0.00 58 1015.8
20260508145829 17 0 9.7 20.9 0.00 0.00 0.00 58 1015.9
20260508144819 17 23 12.9 17.7 0.00 0.00 0.00 58 1015.9
20260508143819 17 23 12.9 22.5 0.00 0.00 0.00 58 1015.9
20260508142829 18 23 12.9 19.3 0.00 0.00 0.00 56 1016.0
20260508141819 18 45 14.5 22.5 0.00 0.00 0.00 54 1016.0
20260508140819 18 45 9.7 16.1 0.00 0.00 0.00 55 1016.0
20260508135819 18 0 6.4 12.9 0.00 0.00 0.00 55 1015.9
20260508134839 18 45 6.4 11.3 0.00 0.00 0.00 54 1016.0
20260508133818 19 68 4.8 16.1 0.00 0.00 0.00 53 1016.1
20260508132818 18 68 1.6 4.8 0.00 0.00 0.00 56 1016.1
20260508131829 18 23 8.0 17.7 0.00 0.00 0.00 55 1016.2
20260508130858 18 45 6.4 9.7 0.00 0.00 0.00 56 1016.2
20260508125920 18 23 9.7 14.5 0.00 0.00 0.00 59 1016.0
20260508124818 17 45 4.8 6.4 0.00 0.00 0.00 59 1016.0
20260508123829 17 90 6.4 11.3 0.00 0.00 0.00 60 1016.1
20260508122840 18 45 6.4 9.7 0.00 0.00 0.00 59 1016.0
20260508121819 18 338 6.4 14.5 0.00 0.00 0.00 61 1016.2
20260508120829 18 338 4.8 9.7 0.00 0.00 0.00 63 1016.3
20260508115829 18 0 8.0 19.3 0.00 0.00 0.00 63 1016.3
20260508114818 18 0 6.4 11.3 0.00 0.00 0.00 63 1016.3
20260508113849 18 45 3.2 9.7 0.00 0.00 0.00 62 1016.4
20260508112829 18 315 3.2 6.4 0.00 0.00 0.00 62 1016.2
20260508111818 20 23 6.4 9.7 0.00 0.00 0.00 56 1016.3
20260508110818 20 45 6.4 8.0 0.00 0.00 0.00 48 1016.3
20260508105840 20 315 1.6 4.8 0.00 0.00 0.00 51 1016.3
20260508104841 19 23 1.6 3.2 0.00 0.00 0.00 48 1016.4
20260508103903 19 135 1.6 3.2 0.00 0.00 0.00 51 1016.4
20260508102820 18 158 1.6 3.2 0.00 0.00 0.00 50 1016.4
20260508101838 18 135 3.2 6.4 0.00 0.00 0.00 54 1016.5
20260508100820 18 68 3.2 4.8 0.00 0.00 0.00 57 1016.5
20260508100048 18 180 4.8 6.4 0.00 0.00 0.00 55 1016.5
20260508095618 18 158 4.8 9.7 0.00 0.00 0.00 54 1016.5
20260508094700 18 113 6.4 9.7 0.00 0.00 0.00 56 1016.4
20260508093700 18 158 6.4 11.3 0.00 0.00 0.00 58 1016.5
20260508092618 17 0.0 1.6 0.00 0.00 0.00 59 1016.5
20260508091618 17 68 6.4 11.3 0.00 0.00 0.00 59 1016.5
20260508090620 17 90 6.4 9.7 0.00 0.00 0.00 63 1016.5
20260508085620 17 180 1.6 3.2 0.00 0.00 0.00 64 1016.6
20260508084631 16 68 1.6 3.2 0.00 0.00 0.00 67 1016.6
20260508083620 16 315 1.6 3.2 0.00 0.00 0.00 68 1016.7
20260508082638 16 180 1.6 3.2 0.00 0.00 0.00 68 1016.5
20260508081618 16 113 1.6 6.4 0.00 0.00 0.00 67 1016.6
20260508080618 16 23 3.2 4.8 0.00 0.00 0.00 68 1016.6
20260508075623 15 180 3.2 3.2 0.00 0.00 0.00 74 1016.4
20260508074620 14 180 3.2 4.8 0.00 0.00 0.00 75 1016.5
20260508073630 13 135 1.6 3.2 0.00 0.00 0.00 78 1016.5
20260508072620 13 203 1.6 3.2 0.00 0.00 0.00 78 1016.5
20260508071817 13 0.0 1.6 0.00 0.00 0.00 80 1016.6
20260508070620 12 0.0 1.6 0.00 0.00 0.00 82 1016.5
20260508065620 11 0.0 1.6 0.00 0.00 0.00 85 1016.5
20260508064620 11 0.0 0.0 0.00 0.00 0.00 87 1016.3
20260508063651 10 203 1.6 1.6 0.00 0.00 0.00 88 1016.4
20260508062631 10 0.0 0.0 0.00 0.00 0.00 90 1016.2
20260508061815 9 0.0 0.0 0.00 0.00 0.00 90 1016.1
20260508061030 8 0.0 1.6 0.00 0.00 0.00 90 1016.0
20260508060019 8 0.0 0.0 0.00 0.00 0.00 90 1016.1
20260508055040 8 0.0 0.0 0.00 0.00 0.00 90 1016.0
20260508054019 8 0.0 0.0 0.00 0.00 0.00 90 1016.0
20260508053020 8 0.0 0.0 0.00 0.00 0.00 89 1016.0
20260508052020 8 0.0 0.0 0.00 0.00 0.00 89 1015.8
20260508051020 8 0.0 0.0 0.00 0.00 0.00 89 1015.9
20260508050051 8 0.0 0.0 0.00 0.00 0.00 89 1015.8
20260508045019 8 0.0 0.0 0.00 0.00 0.00 89 1015.6
20260508044031 8 0.0 0.0 0.00 0.00 0.00 89 1015.5
20260508043020 8 0.0 0.0 0.00 0.00 0.00 88 1015.6
20260508042030 8 0.0 0.0 0.00 0.00 0.00 88 1015.4
20260508041040 8 0.0 0.0 0.00 0.00 0.00 88 1015.5
20260508040039 8 0.0 0.0 0.00 0.00 0.00 88 1015.6
20260508035030 8 0.0 0.0 0.00 0.00 0.00 87 1015.5
20260508034030 8 0.0 0.0 0.00 0.00 0.00 87 1015.5
20260508033030 8 0.0 0.0 0.00 0.00 0.00 87 1015.5
20260508032020 8 0.0 0.0 0.00 0.00 0.00 86 1015.4
20260508031020 8 0.0 0.0 0.00 0.00 0.00 86 1015.4
20260508030040 8 45 1.6 3.2 0.00 0.00 0.00 86 1015.3
20260508025019 8 0.0 0.0 0.00 0.00 0.00 85 1015.5
20260508024020 9 0.0 0.0 0.00 0.00 0.00 85 1015.4
20260508023019 9 0.0 0.0 0.00 0.00 0.00 85 1015.5
20260508022030 9 0.0 0.0 0.00 0.00 0.00 84 1015.6
20260508021019 10 0.0 0.0 0.00 0.00 0.00 84 1015.6
20260508020050 10 23 1.6 1.6 0.00 0.00 0.00 84 1015.6
20260508015019 10 45 3.2 4.8 0.00 0.00 0.00 83 1015.6
20260508014020 10 0.0 0.0 0.00 0.00 0.00 83 1015.6
20260508013019 10 0.0 0.0 0.00 0.00 0.00 83 1015.6
20260508012019 10 0.0 0.0 0.00 0.00 0.00 82 1015.5
20260508011019 10 0.0 0.0 0.00 0.00 0.00 82 1015.6
20260508010040 10 0.0 0.0 0.00 0.00 0.00 82 1015.7
20260508005020 10 0.0 0.0 0.00 0.00 0.00 82 1015.7
20260508004019 10 0.0 0.0 0.00 0.00 0.00 82 1015.7
20260508003030 10 45 1.6 1.6 0.00 0.00 0.00 82 1015.8
20260508002030 10 0.0 1.6 0.00 0.00 0.00 82 1015.8
20260508001030 10 0.0 0.0 0.00 0.00 0.00 82 1015.8
20260508000030 10 0.0 0.0 0.00 0.00 0.00 82 1015.8
20260507235020 10 0.0 1.6 0.00 0.00 0.00 82 1015.9
20260507234020 10 0.0 0.0 0.00 0.00 0.00 82 1016.0
20260507233020 10 0.0 0.0 0.00 0.00 0.00 82 1016.0
20260507232142 10 0.0 0.0 0.00 0.00 0.00 82 1016.1
20260507231020 10 0.0 0.0 0.00 0.00 0.00 82 1016.1
20260507230019 10 0.0 1.6 0.00 0.00 0.00 83 1016.3
20260507225020 10 0.0 0.0 0.00 0.00 0.00 83 1016.2
20260507224019 10 0.0 0.0 0.00 0.00 0.00 83 1016.1
20260507223041 10 0.0 0.0 0.00 0.00 0.00 83 1016.3
20260507222020 10 0.0 0.0 0.00 0.00 0.00 82 1016.2
20260507221059 10 0.0 0.0 0.00 0.00 0.00 82 1016.3
20260507220020 10 0.0 1.6 0.00 0.00 0.00 82 1016.3
20260507215030 11 0.0 0.0 0.00 0.00 0.00 82 1016.3
20260507214030 11 0.0 0.0 0.00 0.00 0.00 81 1016.3
20260507213019 11 0.0 0.0 0.00 0.00 0.00 81 1016.5
20260507212030 11 68 1.6 3.2 0.00 0.00 0.00 81 1016.3
20260507211039 11 0.0 0.0 0.00 0.00 0.00 81 1016.4
20260507210020 11 45 1.6 3.2 0.00 0.00 0.00 81 1016.3
20260507205019 11 0.0 1.6 0.00 0.00 0.00 81 1016.4
20260507204020 11 68 1.6 3.2 0.00 0.00 0.00 81 1016.2
20260507203040 11 45 1.6 3.2 0.00 0.00 0.00 80 1016.2
20260507202019 11 0.0 1.6 0.00 0.00 0.00 80 1016.2
20260507201039 11 90 1.6 3.2 0.00 0.00 0.00 80 1016.0
20260507200030 11 113 1.6 3.2 0.00 0.00 0.00 80 1015.9
20260507195019 11 45 1.6 3.2 0.00 0.00 0.00 79 1015.8
20260507194022 11 45 1.6 3.2 0.00 0.00 0.00 79 1015.7
20260507193039 11 45 1.6 1.6 0.00 0.00 0.00 79 1015.6
20260507192030 12 68 1.6 3.2 0.00 0.00 0.00 79 1015.7
20260507191039 12 45 1.6 3.2 0.00 0.00 0.00 78 1015.6
20260507190030 12 23 4.8 6.4 0.00 0.00 0.00 78 1015.5
20260507185030 12 23 1.6 3.2 0.00 0.00 0.00 78 1015.5
20260507184019 12 0.0 1.6 0.00 0.00 0.00 77 1015.4
20260507183019 12 0 1.6 3.2 0.00 0.00 0.00 77 1015.4
20260507182019 12 45 3.2 4.8 0.00 0.00 0.00 77 1015.6
20260507181039 12 0.0 1.6 0.00 0.00 0.00 76 1015.5
20260507180019 12 45 3.2 4.8 0.00 0.00 0.00 76 1015.5
20260507175019 12 68 1.6 4.8 0.00 0.00 0.00 76 1015.5
20260507174019 12 68 1.6 3.2 0.00 0.00 0.00 76 1015.5
20260507173041 12 45 1.6 3.2 0.00 0.00 0.00 77 1015.4
20260507172019 12 23 1.6 4.8 0.00 0.00 0.00 77 1015.5
20260507171051 12 23 4.8 8.0 0.00 0.00 0.00 77 1015.6
20260507170019 12 90 1.6 4.8 0.00 0.00 0.00 77 1015.6
20260507165019 12 0.0 1.6 0.00 0.00 0.00 78 1015.6
20260507164039 12 68 3.2 6.4 0.00 0.00 0.00 78 1015.5
20260507163218 12 23 3.2 6.4 0.00 0.00 0.00 78 1015.6
20260507162219 12 23 3.2 4.8 0.00 0.00 0.00 78 1015.6
20260507161219 12 0 3.2 4.8 0.00 0.00 0.00 78 1015.6
20260507160219 12 45 3.2 6.4 0.00 0.00 0.00 77 1015.7